Flag for Colombia Weather past 2 weeks in Medellin, Colombia

Now
59 °F

Fog.


Feels Like: 59 °F
Forecast: 58 / 84 °F
Wind: No wind

Location: Rionegro / J. M. Cordova

Current Time: Dec 21, 2014 at 4:46:05 AM

Latest Report: Dec 21, 2014 at 4:00 AM


Visibility: 2 mi

Pressure: 30.23 "Hg

Humidity: 94%

Dew point: 57 °F

Location of MedellinLocation

Historic Weather in Medellin — Graph

°F

Medellin temperature yesterday

Maximum temperature yesterday: 72 °F (at 12:00 PM)
Minimum temperature yesterday: 57 °F (at 5:30 AM)
Average temperature yesterday: 63 °F

Past Weeks' High & Low Weather Summary

 TemperatureHumidityPressure
High73 °F (Dec 12, 1:00 PM)100% (Dec 6, 5:00 AM)30.38 "Hg (Dec 6, 5:00 AM)
Low41 °F (Dec 15, 11:00 PM)47% (Dec 12, 1:00 PM)30.17 "Hg (Dec 8, 5:00 PM)
Average61 °F85%30.27 "Hg
* Reported Dec 6 4:00 AM — Dec 21 4:00 AM, Medellin, Weather by CustomWeather, © 2014

Note: Actual official high and low records may vary slightly from our data, if they occured in-between our weather recording intervals... More about our weather records

Advertising

Medellin weather history for previous 24 hours

 ConditionsComfort  
Time TempWeatherWind HumidityBarometerVisibility
4:00 AM
Dec 21
59 °FFog.No wind94%30.23 "Hg2 mi
3:00 AM59 °FFog.No wind94%30.24 "Hg3 mi
2:00 AM59 °FFog.No wind94%30.25 "Hg2 mi
1:00 AM59 °FFog.No wind100%30.28 "Hg2 mi
12:00 AM59 °FFog.No wind100%30.30 "Hg3 mi
11:00 PM
Dec 20
61 °FPassing clouds.No wind94%30.31 "HgN/A
10:00 PM61 °FPartly cloudy.No wind94%30.28 "HgN/A
9:00 PM63 °FPassing clouds.No wind88%30.27 "HgN/A
8:00 PM63 °FPartly cloudy.No wind88%30.26 "HgN/A
7:00 PM63 °FPassing clouds.No wind88%30.25 "HgN/A
6:00 PM64 °FThunderstorms. Partly cloudy.7 mph83%30.22 "HgN/A
5:00 PM66 °FBroken clouds.10 mph73%30.20 "HgN/A
4:00 PM70 °FPartly sunny.7 mph60%30.18 "HgN/A
3:00 PM72 °FBroken clouds.12 mph57%30.19 "HgN/A
2:00 PM72 °FBroken clouds.7 mph50%30.21 "HgN/A
1:00 PM72 °FScattered clouds.8 mph50%30.25 "HgN/A
12:00 PM72 °FBroken clouds.8 mph47%30.27 "HgN/A
11:00 AM68 °FBroken clouds.8 mph56%30.28 "HgN/A
10:00 AM66 °FScattered clouds.12 mph64%30.29 "HgN/A
9:00 AM63 °FScattered clouds.5 mph77%30.30 "HgN/A
8:00 AM59 °FFog.No wind94%30.29 "Hg3 mi
7:00 AM59 °FFog.No wind94%30.26 "Hg2 mi
6:00 AM57 °FFog.No wind94%30.25 "Hg3 mi
5:30 AM57 °FFog.3 mph94%30.24 "Hg3 mi
5:00 AM59 °FFog.3 mph88%30.23 "Hg3 mi
4:00 AM59 °FFog.No wind88%30.22 "Hg3 mi
Weather by CustomWeather, © 2014

See weather overviewHow to use our weather pages